GW6363 Weather Reports


time (UTC)temp
C
wind
direction
speed
KPH
gust
KPH
rain 1hr
cm
rain 24hr
cm
rain mn
cm
humidity
%
barometer
mb
20260503223855 21 68 9.7 9.7 0.00 0.00 0.00 33 1017.4
20260503223352 21 35 1.6 6.4 0.00 0.00 0.00 32 1017.3
20260503222847 21 55 0.0 6.4 0.00 0.00 0.00 37 1017.3
20260503222347 21 87 3.2 6.4 0.00 0.00 0.00 34 1017.3
20260503221844 20 96 1.6 9.7 0.00 0.00 0.00 32 1017.5
20260503221343 21 109 3.2 6.4 0.00 0.00 0.00 31 1017.7
20260503220838 21 86 3.2 8.0 0.00 0.00 0.00 32 1017.6
20260503220335 21 269 0.0 4.8 0.00 0.00 0.00 32 1017.7
20260503215832 21 12 0.0 4.8 0.00 0.00 0.00 35 1017.8
20260503215329 21 31 3.2 8.0 0.00 0.00 0.00 34 1017.9
20260503214827 21 69 6.4 8.0 0.00 0.00 0.00 31 1017.7
20260503214324 21 70 6.4 8.0 0.00 0.00 0.00 31 1017.7
20260503213821 20 158 0.0 9.7 0.00 0.00 0.00 35 1017.7
20260503213319 21 309 3.2 6.4 0.00 0.00 0.00 31 1017.9
20260503212815 20 101 1.6 6.4 0.00 0.00 0.00 36 1018.0
20260503212313 20 93 4.8 8.0 0.00 0.00 0.00 34 1018.0
20260503211810 20 93 3.2 14.5 0.00 0.00 0.00 31 1018.0
20260503211307 20 118 4.8 6.4 0.00 0.00 0.00 33 1018.0
20260503210807 20 29 3.2 9.7 0.00 0.00 0.00 34 1017.9
20260503210305 20 76 0.0 8.0 0.00 0.00 0.00 34 1018.1
20260503205800 20 34 3.2 12.9 0.00 0.00 0.00 32 1018.3
20260503205256 20 358 1.6 8.0 0.00 0.00 0.00 36 1018.3
20260503204753 20 86 4.8 6.4 0.00 0.00 0.00 37 1018.3
20260503204251 20 80 6.4 6.4 0.00 0.00 0.00 34 1018.4
20260503203748 20 51 1.6 4.8 0.00 0.00 0.00 31 1018.4
20260503203245 20 111 6.4 9.7 0.00 0.00 0.00 32 1018.6
20260503202742 20 97 4.8 8.0 0.00 0.00 0.00 33 1018.4
20260503202240 20 80 3.2 6.4 0.00 0.00 0.00 36 1018.9
20260503201738 19 71 6.4 9.7 0.00 0.00 0.00 36 1018.8
20260503201235 20 81 6.4 6.4 0.00 0.00 0.00 36 1019.1
20260503200732 19 157 3.2 9.7 0.00 0.00 0.00 36 1019.1
20260503200228 19 327 3.2 8.0 0.00 0.00 0.00 35 1019.1
20260503195724 19 56 8.0 9.7 0.00 0.00 0.00 35 1019.3
20260503195222 18 92 4.8 6.4 0.00 0.00 0.00 37 1019.3
20260503194719 18 19 0.0 11.3 0.00 0.00 0.00 34 1019.3
20260503194215 20 104 0.0 9.7 0.00 0.00 0.00 37 1019.4
20260503193711 18 55 4.8 8.0 0.00 0.00 0.00 39 1019.6
20260503193207 18 18 1.6 6.4 0.00 0.00 0.00 36 1019.4
20260503192703 18 87 6.4 12.9 0.00 0.00 0.00 36 1019.8
20260503192158 19 102 6.4 14.5 0.00 0.00 0.00 33 1019.8
20260503191655 18 29 3.2 6.4 0.00 0.00 0.00 41 1019.8
20260503191152 18 68 4.8 9.7 0.00 0.00 0.00 34 1020.0
20260503190649 18 89 0.0 12.9 0.00 0.00 0.00 36 1019.9
20260503190146 18 263 1.6 4.8 0.00 0.00 0.00 43 1020.1
20260503185642 18 96 6.4 9.7 0.00 0.00 0.00 35 1020.2
20260503185138 18 54 4.8 6.4 0.00 0.00 0.00 41 1019.9
20260503184633 18 48 3.2 4.8 0.00 0.00 0.00 44 1020.3
20260503184130 18 341 3.2 6.4 0.00 0.00 0.00 38 1020.1
20260503183626 18 86 3.2 16.1 0.00 0.00 0.00 34 1020.1
20260503183124 17 23 6.4 6.4 0.00 0.00 0.00 42 1020.3
20260503182622 17 115 1.6 6.4 0.00 0.00 0.00 35 1020.2
20260503182120 17 66 4.8 6.4 0.00 0.00 0.00 35 1020.4
20260503181617 17 97 14.5 17.7 0.00 0.00 0.00 36 1020.6
20260503181113 17 86 6.4 8.0 0.00 0.00 0.00 39 1020.5
20260503180610 16 51 4.8 11.3 0.00 0.00 0.00 35 1020.5
20260503180108 17 321 0.0 6.4 0.00 0.00 0.00 42 1020.5
20260503175605 17 288 1.6 8.0 0.00 0.00 0.00 39 1020.9
20260503175102 17 8 1.6 11.3 0.00 0.00 0.00 36 1020.9
20260503174559 17 102 4.8 6.4 0.00 0.00 0.00 37 1020.7
20260503174055 17 279 0.0 4.8 0.00 0.00 0.00 45 1020.9
20260503173550 16 272 3.2 4.8 0.00 0.00 0.00 40 1020.8
20260503173047 17 359 0.0 4.8 0.00 0.00 0.00 36 1020.9
20260503172544 17 79 4.8 6.4 0.00 0.00 0.00 41 1021.0
20260503172042 16 37 3.2 9.7 0.00 0.00 0.00 38 1021.0
20260503171538 16 313 3.2 6.4 0.00 0.00 0.00 46 1021.0
20260503171036 16 259 3.2 6.4 0.00 0.00 0.00 40 1021.3
20260503170532 16 86 11.3 11.3 0.00 0.00 0.00 42 1021.3
20260503150924 14 111 6.4 8.0 0.00 0.00 0.00 42 1022.2
20260503150421 13 76 3.2 6.4 0.00 0.00 0.00 42 1022.3
20260503131314 9 85 3.2 3.2 0.00 0.00 0.00 68 1022.2
20260503130812 9 82 3.2 3.2 0.00 0.00 0.00 68 1022.2
20260503130309 8 89 0.0 4.8 0.00 0.00 0.00 67 1022.3
20260503110702 4 87 1.6 4.8 0.00 0.00 0.00 88 1021.0
20260503110200 4 96 3.2 3.2 0.00 0.00 0.00 88 1020.9
20260503100126 5 63 3.2 3.2 0.00 0.00 0.00 86 1020.3
20260503081516 6 80 1.6 3.2 0.00 0.00 0.00 77 1019.7
20260503081013 6 81 3.2 3.2 0.00 0.00 0.00 78 1019.5
20260503080509 6 85 3.2 3.2 0.00 0.00 0.00 78 1019.4
20260503072443 7 84 3.2 4.8 0.00 0.00 0.00 77 1019.3
20260503071939 7 56 3.2 3.2 0.00 0.00 0.00 76 1019.1
20260503071436 7 78 3.2 3.2 0.00 0.00 0.00 76 1019.1
20260503070932 7 74 1.6 3.2 0.00 0.00 0.00 75 1019.2
20260503070430 7 66 3.2 3.2 0.00 0.00 0.00 74 1019.1
20260503054843 10 69 1.6 3.2 0.00 0.00 0.00 64 1018.9
20260503054339 10 72 6.4 6.4 0.00 0.00 0.00 63 1018.9
20260503053837 10 55 1.6 3.2 0.00 0.00 0.00 63 1018.6
20260503053335 10 74 3.2 4.8 0.00 0.00 0.00 64 1018.6
20260503052831 10 75 3.2 4.8 0.00 0.00 0.00 63 1018.4
20260503052328 10 55 0.0 3.2 0.00 0.00 0.00 63 1018.5
20260503051824 10 61 3.2 4.8 0.00 0.00 0.00 62 1018.5
20260503051321 10 71 0.0 3.2 0.00 0.00 0.00 63 1018.6
20260503050818 10 69 3.2 3.2 0.00 0.00 0.00 62 1018.6
20260503050314 10 78 1.6 4.8 0.00 0.00 0.00 62 1018.9
20260503045812 10 56 3.2 4.8 0.00 0.00 0.00 63 1018.9
20260503045309 10 50 1.6 3.2 0.00 0.00 0.00 63 1018.6
20260503044805 10 67 0.0 4.8 0.00 0.00 0.00 62 1018.8
20260503044302 10 41 3.2 3.2 0.00 0.00 0.00 61 1018.8
20260503043800 10 40 0.0 4.8 0.00 0.00 0.00 63 1018.5
20260503043256 10 76 1.6 3.2 0.00 0.00 0.00 62 1018.5
20260503042752 10 68 1.6 4.8 0.00 0.00 0.00 61 1018.6
20260503042249 10 59 1.6 4.8 0.00 0.00 0.00 61 1018.4
20260503041745 11 71 4.8 4.8 0.00 0.00 0.00 60 1018.2
20260503041243 11 55 3.2 3.2 0.00 0.00 0.00 59 1018.3
20260503040741 11 76 0.0 4.8 0.00 0.00 0.00 60 1018.3
20260503040238 11 76 1.6 1.6 0.00 0.00 0.00 61 1018.2
20260503035735 11 52 0.0 3.2 0.00 0.00 0.00 58 1018.3
20260503035232 11 74 0.0 3.2 0.00 0.00 0.00 58 1018.3
20260503034729 11 84 4.8 4.8 0.00 0.00 0.00 58 1018.2
20260503034226 11 80 0.0 6.4 0.00 0.00 0.00 58 1018.4
20260503033724 11 96 0.0 4.8 0.00 0.00 0.00 58 1018.3
20260503033221 11 97 0.0 3.2 0.00 0.00 0.00 58 1018.1
20260503032719 11 54 3.2 9.7 0.00 0.00 0.00 57 1018.2
20260503032218 11 58 1.6 3.2 0.00 0.00 0.00 57 1018.0
20260503031714 11 67 0.0 6.4 0.00 0.00 0.00 58 1018.2
20260503031213 11 48 6.4 6.4 0.00 0.00 0.00 58 1018.0
20260503030708 11 44 0.0 4.8 0.00 0.00 0.00 57 1017.9
20260503030205 11 107 0.0 4.8 0.00 0.00 0.00 56 1018.0
20260503025702 11 69 0.0 8.0 0.00 0.00 0.00 57 1017.8
20260503025200 11 66 1.6 4.8 0.00 0.00 0.00 56 1017.9
20260503024656 11 38 3.2 3.2 0.00 0.00 0.00 57 1018.0
20260503024154 11 264 1.6 4.8 0.00 0.00 0.00 57 1017.7
20260503023650 11 77 3.2 3.2 0.00 0.00 0.00 58 1017.9
20260503023147 12 57 3.2 3.2 0.00 0.00 0.00 55 1017.9
20260503022643 12 52 3.2 6.4 0.00 0.00 0.00 55 1017.7
20260503022143 12 54 1.6 3.2 0.00 0.00 0.00 56 1017.7
20260503021640 12 89 3.2 4.8 0.00 0.00 0.00 55 1017.6
20260503021136 12 44 3.2 4.8 0.00 0.00 0.00 55 1017.8
20260503020633 12 84 1.6 3.2 0.00 0.00 0.00 55 1017.5
20260503020131 12 45 3.2 3.2 0.00 0.00 0.00 56 1017.5
20260503015628 12 32 0.0 6.4 0.00 0.00 0.00 56 1017.7
20260503015125 12 78 3.2 3.2 0.00 0.00 0.00 56 1017.3
20260503014620 12 75 3.2 3.2 0.00 0.00 0.00 56 1017.1
20260503014118 11 63 1.6 3.2 0.00 0.00 0.00 56 1017.1
20260503013615 12 66 1.6 3.2 0.00 0.00 0.00 57 1017.0
20260503013114 12 83 1.6 4.8 0.00 0.00 0.00 55 1017.1
20260503012611 12 69 1.6 3.2 0.00 0.00 0.00 56 1017.0
20260503012107 12 54 3.2 4.8 0.00 0.00 0.00 57 1016.8
20260503011603 11 91 0.0 4.8 0.00 0.00 0.00 55 1016.7
20260503011101 11 42 4.8 4.8 0.00 0.00 0.00 55 1017.0
20260503010556 11 68 3.2 6.4 0.00 0.00 0.00 56 1016.9
20260503010055 12 65 3.2 6.4 0.00 0.00 0.00 56 1016.8
20260503005551 12 65 3.2 3.2 0.00 0.00 0.00 55 1016.7
20260503005049 12 82 4.8 6.4 0.00 0.00 0.00 54 1016.6
20260503004544 12 53 1.6 4.8 0.00 0.00 0.00 53 1016.6
20260503004043 12 71 3.2 4.8 0.00 0.00 0.00 53 1016.4
20260503003539 12 44 0.0 3.2 0.00 0.00 0.00 52 1016.2
20260503003037 12 87 0.0 3.2 0.00 0.00 0.00 51 1016.3
20260503002533 13 49 0.0 4.8 0.00 0.00 0.00 51 1016.2
20260503002030 13 77 3.2 3.2 0.00 0.00 0.00 48 1016.2
20260503001526 13 52 0.0 6.4 0.00 0.00 0.00 48 1016.0
20260503001024 13 44 0.0 4.8 0.00 0.00 0.00 49 1016.2
20260503000521 13 45 1.6 3.2 0.00 0.00 0.00 46 1016.0
20260503000018 14 53 3.2 4.8 0.00 0.00 0.00 45 1015.9
20260502235515 14 13 0.0 3.2 0.00 0.00 0.00 44 1015.7
20260502235013 15 314 1.6 6.4 0.00 0.00 0.00 43 1015.7
20260502234509 15 37 4.8 8.0 0.00 0.00 0.00 43 1015.7
20260502234006 15 85 3.2 6.4 0.00 0.00 0.00 44 1015.5
20260502233506 15 304 1.6 9.7 0.00 0.00 0.00 44 1015.5
20260502233004 15 96 1.6 3.2 0.00 0.00 0.00 46 1015.5
20260502232500 15 75 3.2 3.2 0.00 0.00 0.00 43 1015.6
20260502231957 15 240 0.0 4.8 0.00 0.00 0.00 44 1015.5
20260502231454 16 92 3.2 3.2 0.00 0.00 0.00 42 1015.7
20260502230952 16 37 1.6 6.4 0.00 0.00 0.00 42 1015.4
20260502230450 16 87 3.2 9.7 0.00 0.00 0.00 40 1015.4
20260502225948 16 51 6.4 6.4 0.00 0.00 0.00 40 1015.4
20260502225443 17 275 3.2 4.8 0.00 0.00 0.00 40 1015.4
20260502224941 17 77 3.2 3.2 0.00 0.00 0.00 42 1015.5
20260502224437 18 81 0.0 4.8 0.00 0.00 0.00 36 1015.4
20260502223934 17 50 1.6 3.2 0.00 0.00 0.00 37 1015.5